Location: *
(35.8942°N, 23.3025°E)
Time: 23:40:04
(UTC+00:00)

ALOS - Pass Details

Date: 21 September 2021
Orbit: 682 x 685 km, 97.9° (Epoch: 22 October)

Event Time Altitude Azimuth Distance (km) Brightness Sun altitude
Rises 01:36:18 0° 25° (NNE) 3,050 6.3 -31.6°
Reaches altitude 10° 01:38:50 10° 37° (NE) 2,130 5.5 -31.1°
Maximum altitude 01:42:50 28° 96° (E) 1,264 4.0 -30.4°
Enters shadow 01:44:31 23° 131° (SE) 1,452 4.1 -30.1°
